Location: Omaha
(41.2590°N, 95.9380°W)
Time: 07:43:04
(UTC-05:00)

Tiangong 1 - Pass Details

Date: 15 October 2017
Orbit: 293 x 320 km, 42.8° (Epoch: 19 October)

Event Time Altitude Azimuth Distance (km) Brightness Sun altitude
Rises 20:46:53 0° 273° (W) 2,033 6.1 -24.1°
Reaches altitude 10° 20:49:45 10° 239° (WSW) 1,193 4.2 -24.6°
Enters shadow 20:49:53 10° 236° (WSW) 1,172 4.1 -24.7°
